Weather in Pokrovskoye

Russia / Tyumen Oblast     57°14′36″N   66°47′34″E
temp.,
°C
wind,
m/s
gust,
m/s
humid.,
%
clouds,
%
prec.,
mm/h
press.,
hPa
HPBL,
m
6 march, sat
sat623:00−6ssw359286 0.0 997120
02:00−5w3796100 0.1 996210
05:00−10w4109397 0.1 999261
08:00−12w5129297 0.0 1001413
11:00−9w7138167 0.0 1004726
14:00−6w7127624 0.0 10051378
17:00−6wsw498462 0.1 1005827
20:00−8sw5109492 0.2 1006419
7 march, sun
sun723:00−10wsw4109196 0.8 1008319
02:00−15wsw4109227 0.0 1009211
05:00−18wsw349514 0.0 101184
08:00−19sw33950 0.0 101254
11:00−13ssw24880 0.0 1013267
14:00−9s238396 0.0 1011404
17:00−8ese249398 0.1 1009357
20:00−9ene3696100 0.7 1006273
8 march, mon
mon823:00−9nne3596100 1.6 1003193
02:00−10nnw4795100 0.9 1001279
05:00−12nw5109399 1.1 1002355
08:00−16wnw499698 0.1 1005276
11:00−14w469389 0.1 1007331
14:00−11wsw478676 0.0 1008637
17:00−11ssw488888 0.1 1008548
20:00−12s41093100 0.0 1008394
9 march, tue
tue923:00−11s5119499 0.1 1007412
02:00−10s4119498 0.1 1006349
05:00−8ssw5129399 0.1 1005507
08:00−7ssw61392100 0.1 1005554
11:00−5ssw61192100 0.3 1003671
14:00−4ssw81391100 0.7 1002967
17:00−2wsw51081100 1.1 10021142
20:00−7wsw389694 0.4 1004242
10 march, wed
wed1023:00−11wsw349364 0.4 100769
02:00−14wsw22950 0.0 100820
05:00−16sw129730 0.0 100820
08:00−15ssw129798 0.0 100823
11:00−10sw129099 0.0 1007268
14:00−7w1282100 0.0 1006499
17:00−8wsw2293100 0.1 1005261
20:00−11w2391100 0.1 100525